Buffalo, SD

6:26 AM MDT on October 18, 2017 (GMT -0600)
Buffalo

Weather History for K2WX - March, 2013

Change the Weather History Date:

Sunday, March 3, 2013

  Actual Average Record
Temperature  
Mean Temperature 44 °F 28 °F  
Max Temperature 55 °F 39 °F 60 °F (2005)
Min Temperature 32 °F 18 °F -11 °F (2002)
Degree Days  
Heating Degree Days 21 37  
Month to date heating degree days 72 112  
Since 1 July heating degree days 5409 5909  
Cooling Degree Days 0 0  
Month to date cooling degree days 0 0  
Year to date cooling degree days 0 0  
Moisture  
Dew Point 32 °F    
Average Humidity 69    
Maximum Humidity 96    
Minimum Humidity 41    
Precipitation  
Precipitation 0.01 in 0.01 in 0.01 in (2013)
Month to date precipitation 0.01 0.03  
Year to date precipitation 0.16 0.60  
Sea Level Pressure  
Sea Level Pressure 29.61 in    
Wind  
Wind Speed 13 mph (NW)    
Max Wind Speed 51 mph    
Max Gust Speed 60 mph    
T = Trace of Precipitation, MM = Missing Value Source: NWS Daily Summary

Daily Weather History Graph

Daily Weather History Graph

Search for Another Location

Airport or City:

Trip Planner

Search our weather history database for the weather conditions in past years. The results will help you decide how hot, cold, wet, or windy it might be!

Date:

Astronomy

Mar. 03, 2013 Rise Set
Actual Time 6:28 AM MST 5:44 PM MST
Civil Twilight 5:58 AM MST 6:13 PM MST
Nautical Twilight 5:24 AM MST 6:48 PM MST
Astronomical Twilight 4:49 AM MST 7:22 PM MST
Moon No Moon Rise 9:25 AM MST (3/3)
Length of Visible Light 12h 15m
Length of Day
11h 15m
Waning Gibbous, 63% of the Moon is Illuminated
Mar 3
Waning Gibbous
Mar 4
Last Quarter
Mar 11
New
Mar 19
First Quarter
Mar 27
Full

Hourly Weather History & Observations

Time (MST) Temp. Windchill Dew Point Humidity Pressure Visibility Wind Dir Wind Speed Gust Speed Precip Events Conditions
12:56 AM 39.0 °F 32.8 °F 27.0 °F 62% 29.78 in - SSW 9.2 mph - N/A   Unknown
1:56 AM 41.0 °F 35.8 °F 28.9 °F 62% 29.75 in - SSW 8.1 mph - N/A   Unknown
2:56 AM 39.9 °F 37.8 °F 28.0 °F 63% 29.73 in - South 3.5 mph - N/A   Unknown
3:56 AM 43.0 °F 37.7 °F 28.9 °F 58% 29.72 in - North 9.2 mph - N/A   Unknown
4:56 AM 44.1 °F 38.1 °F 28.9 °F 55% 29.70 in - North 11.5 mph - N/A   Unknown
5:56 AM 46.9 °F - 32.0 °F 56% 29.68 in - North 6.9 mph - N/A   Unknown
6:56 AM 37.0 °F 31.0 °F 28.0 °F 70% 29.68 in - SSW 8.1 mph - N/A   Unknown
7:56 AM 41.0 °F 37.1 °F 30.0 °F 65% 29.67 in - SSW 5.8 mph - N/A   Unknown
8:56 AM 46.9 °F - 30.9 °F 54% 29.64 in - SSW 8.1 mph - N/A   Unknown
9:56 AM 52.0 °F - 32.0 °F 47% 29.63 in - WSW 5.8 mph - N/A   Unknown
10:56 AM 54.0 °F - 33.1 °F 45% 29.59 in - NW 4.6 mph - N/A   Unknown
11:56 AM 54.0 °F - 33.1 °F 45% 29.57 in - Variable 3.5 mph - N/A   Unknown
12:56 PM 55.0 °F - 32.0 °F 42% 29.54 in - Variable 4.6 mph - N/A   Unknown
1:56 PM 54.0 °F - 33.1 °F 45% 29.51 in - East 5.8 mph - N/A   Unknown
2:56 PM 52.0 °F - 37.0 °F 57% 29.50 in - NNE 11.5 mph - N/A   Unknown
3:56 PM 50.0 °F - 37.0 °F 61% 29.50 in - NE 15.0 mph - N/A   Unknown
4:56 PM 48.0 °F - 39.0 °F 71% 29.49 in - ENE 15.0 mph - N/A   Unknown
5:56 PM 43.0 °F 35.7 °F 37.0 °F 80% 29.48 in - East 15.0 mph - N/A   Unknown
6:56 PM 39.9 °F 32.9 °F 37.0 °F 89% 29.50 in - East 11.5 mph - N/A   Unknown
7:56 PM 39.9 °F 26.1 °F 37.0 °F 89% 29.58 in - West 46.0 mph 59.8 mph N/A   Squalls
8:13 PM 34.0 °F 18.0 °F 30.9 °F 89% 29.56 in - WNW 43.7 mph 57.5 mph N/A   Unknown
8:56 PM 33.1 °F 17.5 °F 30.9 °F 92% 29.58 in - NW 39.1 mph 49.5 mph N/A   Unknown
9:56 PM 33.1 °F 19.6 °F 32.0 °F 96% 29.62 in - NW 27.6 mph 36.8 mph 0.01 in   Unknown
10:56 PM 32.0 °F 19.8 °F 30.9 °F 96% 29.64 in - WNW 20.7 mph - N/A   Unknown
11:56 PM 32.0 °F 20.5 °F 28.9 °F 88% 29.65 in - WNW 18.4 mph - N/A   Unknown